Terug naar catalogus

STARLINK-31558

ActiefCommunicatieVLEO
NORAD 59196·PAYLOAD·🇺🇸 United States

Gelanceerd Mar 10, 2024 vanaf Cape Canaveral Space Force Station

Loading…

Volgende Passages (komende 24 uur)

TLE

VersSource: CelesTrak SupGP

Epoch: Sep 14, 2026, 20:42 UTC

1 59196C 24045U   26257.86298611 -.00022655  00000+0 -82070-3 0  2576
2 59196  43.0020 103.8563 0001755 271.4559 205.5491 15.27583019    16

Volg STARLINK-31558 in realtime met AllMySat

Download on the App Store